Location: Mason Neck State Park
(38.6428°N, 77.1981°W)
Time: 10:21:10
(UTC-05:00)

Daily predictions for brighter satellites

Satellite Brightness Start Highest point End
(mag) Time Altitude Azimuth Time Altitude Azimuth Time Altitude Azimuth
SMAP 3.4 17:09:54 10° SE 17:14:17 43° ENE 17:18:41 10° N
Cosmos 1346 Rocket 3.5 17:11:13 10° SSE 17:14:44 33° E 17:18:15 10° NNE
Cosmos 1455 Rocket 3.0 17:15:06 10° N 17:19:32 74° E 17:23:58 10° SSE
Genesis I 3.2 17:16:44 10° NNW 17:20:37 58° ENE 17:24:27 10° SE
NOSS 2-1 (D) 4.1 17:18:18 10° S 17:21:47 34° ESE 17:25:30 10° NE
NOSS 2-1 (C) 4.1 17:18:59 10° S 17:22:27 34° ESE 17:26:12 10° NE
Delta 2 Rocket 3.8 17:20:50 10° WSW 17:24:15 47° S 17:28:01 10° E
Cosmos 1833 Rocket 3.4 17:19:58 10° N 17:24:57 31° ENE 17:29:53 10° ESE
ISS -0.7 17:24:48 10° NNW 17:25:24 10° N 17:26:01 10° N
IDEFIX/ARIANE 42P 2.5 17:26:07 10° SSE 17:31:15 67° ENE 17:36:25 10° N
Cosmos 2082 Rocket 2.6 17:26:49 10° N 17:32:10 41° ENE 17:37:30 10° SE
Thor Agena Rocket 3.6 17:31:50 10° NNE 17:37:06 85° ESE 17:42:22 10° SSW
Tiangong 1 1.4 17:37:14 10° W 17:40:13 50° NNW 17:42:20 17° ENE
Cosmos 1500 3.1 17:36:50 10° N 17:40:40 66° E 17:44:29 10° SSE
Cosmos 1743 3.5 17:37:18 10° NNE 17:40:44 29° ENE 17:44:08 10° SE
NOSS 2-1 (E) 3.6 17:37:20 10° SSW 17:41:04 51° ESE 17:44:42 13° NE
TIMED 4.5 17:36:51 10° S 17:41:10 69° ESE 17:45:32 10° NNE
Okean 1-7 Rocket 4.1 17:37:15 10° SSE 17:41:26 39° E 17:45:37 10° NNE
Cosmos 375 4.4 17:37:48 10° NW 17:42:07 83° SW 17:45:56 10° SSE
ASTRO F (AKARI) 4.5 17:39:09 10° NNE 17:42:13 48° E 17:45:18 10° S
SJ-7 4.4 17:39:02 10° SSE 17:43:16 78° ENE 17:47:31 10° N
AQUARIUS 4.3 17:44:45 10° S 17:49:14 78° WSW 17:53:45 10° NNW
Cosmos 1484 Rocket 3.0 17:49:48 10° SE 17:53:19 41° ENE 17:56:51 10° N
CZ-4 R/B 4.4 17:54:30 10° SSE 17:58:38 89° W 18:02:49 10° NNW
USA 234 3.6 17:53:20 11° NE 17:59:38 64° NW 18:06:03 10° WSW
Meteor 2-21 4.4 17:53:50 10° N 18:00:02 85° E 18:06:09 10° S
Cosmos 1975 3.7 17:56:33 10° NNW 18:00:30 52° W 18:04:24 10° S
CZ-4 R/B 3.2 18:01:58 10° SSW 18:05:48 35° W 18:09:36 10° NNW
Cosmos 1606 Rocket 4.3 18:03:10 10° NNE 18:07:11 31° ENE 18:11:09 10° SE
Meteor 1-13 Rocket 4.2 18:02:12 10° S 18:07:53 89° E 18:13:45 10° N
MSX 3.9 18:02:56 10° SSE 18:08:42 84° WSW 18:14:28 10° NNW
Meteor 1-23 Rocket 4.5 18:04:11 10° SSE 18:09:34 45° E 18:14:52 10° NNE
Cosmos 2369 Rocket 3.7 18:06:15 10° SE 18:08:54 16° ESE 18:08:54 16° ESE
Meteor 2-9 Rocket 4.4 18:05:16 10° N 18:10:22 41° ENE 18:15:21 10° SE
Cosmos 2239 Rocket 4.5 18:04:28 10° N 18:10:36 59° E 18:16:38 10° SSE
MONITOR-E 4.4 18:10:08 10° S 18:13:18 73° WSW 18:16:31 10° NNW
Meteor 2-4 Rocket 3.6 18:08:28 10° S 18:13:42 56° E 18:18:55 10° NNE
CZ-2C R/B 3.7 18:09:11 10° S 18:13:57 45° W 18:18:53 10° NNW
Abrixas 2.2 18:11:20 10° NW 18:14:19 83° NE 18:15:00 48° ESE
COSMO-SKYMED 1 2.4 18:10:13 10° NNE 18:14:34 79° E 18:18:54 10° S
NOSS 3-4 (A) 4.0 18:08:24 10° NNW 18:15:13 50° NE 18:22:23 10° SE
NOSS 3-4 (C) 4.0 18:08:30 10° NNW 18:15:18 49° NE 18:22:28 10° SE
COSMOS 2441 4.5 18:12:19 10° S 18:17:11 78° WSW 18:22:06 10° NNW
Meteor 2-14 Rocket 4.4 18:11:56 10° N 18:18:08 87° E 18:24:15 10° S
CZ-3B DEB 3.7 18:15:11 10° W 18:19:21 33° NNW 18:25:57 16° NE
Cosmos 2056 Rocket 3.5 18:15:09 10° S 18:20:26 61° ESE 18:23:51 22° NNE
Cosmos 407 Rocket 4.0 18:16:53 10° N 18:21:30 33° ENE 18:21:58 32° ENE
Cosmos 1821 Rocket 3.8 18:16:31 10° N 18:22:36 71° E 18:28:40 10° SSE
Cosmos 921 Rocket 3.9 18:20:30 10° SW 18:24:37 48° WNW 18:28:50 10° N
Cosmos 1025 Rocket 2.9 18:20:18 10° S 18:24:40 79° E 18:28:12 16° N
Timation 2 Rocket 4.5 18:17:59 10° NNW 18:24:49 71° WSW 18:31:38 10° SSE
NOAA 12 4.2 18:19:46 10° SE 18:24:49 49° ENE 18:29:52 10° N
Cosmos 1605 Rocket 4.1 18:27:14 10° N 18:33:17 47° ENE 18:39:12 10° SSE
Cosmos 1624 Rocket 3.9 18:28:16 10° SSW 18:33:27 88° ESE 18:36:48 23° NNE
Cosmos 1340 4.2 18:33:15 10° SSE 18:34:57 23° SSE 18:34:57 23° SSE
Cosmos 1371 Rocket 4.3 18:33:51 10° SSW 18:39:10 67° WNW 18:43:24 17° N
METEOR-M 4.0 18:42:33 10° SSE 18:47:50 69° ENE 18:53:09 10° N
Cosmos 1666 3.3 18:51:11 10° NNW 18:54:59 57° W 18:58:47 10° S
GEOS 3 Rocket 3.6 19:00:07 59° NNE 19:00:07 59° NNE 19:04:41 10° NNW
Delta 2 Rocket 4.3 19:02:48 10° W 19:05:39 42° SW 19:05:39 42° SW
Cosmos 1833 Rocket 4.2 19:03:47 10° NW 19:08:52 35° WSW 19:13:54 10° SSW
Cosmos 1727 Rocket 3.8 19:02:58 10° S 19:09:10 81° E 19:10:52 51° NNE
Cosmos 1452 Rocket 3.9 19:04:14 10° S 19:08:13 52° SSE 19:08:13 52° SSE
Cosmos 1190 Rocket 4.2 19:07:12 10° NNW 19:12:25 69° WSW 19:15:35 24° S
Cosmos 2082 Rocket 4.3 19:11:23 10° NW 19:15:59 26° WSW 19:20:36 10° SSW
Tiangong 1 4.4 19:13:52 10° WNW 19:14:01 11° WNW 19:14:01 11° WNW
Cosmos 1892 Rocket 4.4 19:12:57 10° SSW 19:17:08 46° W 19:17:15 46° WNW
FALCON 9 R/B 3.1 19:03:50 10° W 19:23:14 69° S 19:24:36 57° SE
Cosmos 2369 Rocket 3.5 19:47:31 10° SW 19:50:46 35° SW 19:50:46 35° SW
ATLAS 3B CENTAUR R/B 4.4 20:11:57 10° W 20:23:06 30° SSW 20:23:21 30° SSW
